Time,TemperatureF,DewpointF,PressureIn,WindDirection,WindDirectionDegrees,WindSpeedMPH,WindSpeedGustMPH,Humidity,HourlyPrecipIn,Conditions,Clouds,dailyrainin,SolarRadiationWatts/m^2,SoftwareType,DateUTC
2013-08-25 00:03:00,74.7,74.0,30.14,ESE,122,0.0,0.0,97,0.00,,,0.00,0,weatherlink.com 1.10,2013-08-25 04:03:00,
2013-08-25 00:18:00,74.6,74.0,30.14,ESE,121,0.0,0.0,97,0.00,,,0.00,0,weatherlink.com 1.10,2013-08-25 04:18:00,
2013-08-25 00:33:00,74.6,74.0,30.14,ESE,122,0.0,0.0,97,0.00,,,0.00,0,weatherlink.com 1.10,2013-08-25 04:33:00,
2013-08-25 00:48:00,74.3,73.0,30.14,ESE,122,0.0,0.0,97,0.00,,,0.00,0,weatherlink.com 1.10,2013-08-25 04:48:00,
2013-08-25 01:03:00,74.1,73.0,30.15,ESE,122,0.0,0.0,97,0.00,,,0.00,0,weatherlink.com 1.10,2013-08-25 05:03:00,
2013-08-25 01:18:00,74.0,73.0,30.14,ESE,121,0.0,0.0,97,0.00,,,0.00,0,weatherlink.com 1.10,2013-08-25 05:18:00,
2013-08-25 01:33:00,74.0,73.0,30.14,ESE,122,0.0,0.0,97,0.00,,,0.00,0,weatherlink.com 1.10,2013-08-25 05:33:00,
2013-08-25 01:48:00,74.0,73.0,30.14,ESE,122,0.0,0.0,97,0.00,,,0.00,0,weatherlink.com 1.10,2013-08-25 05:48:00,
2013-08-25 02:03:00,73.9,73.0,30.14,ESE,122,0.0,0.0,98,0.00,,,0.00,0,weatherlink.com 1.10,2013-08-25 06:03:00,
2013-08-25 02:18:00,73.8,73.0,30.14,ESE,122,0.0,0.0,97,0.00,,,0.00,0,weatherlink.com 1.10,2013-08-25 06:18:00,
2013-08-25 02:33:00,73.7,73.0,30.13,ESE,121,0.0,0.0,98,0.00,,,0.00,0,weatherlink.com 1.10,2013-08-25 06:33:00,
2013-08-25 02:48:00,73.6,73.0,30.13,ESE,122,0.0,0.0,97,0.00,,,0.00,0,weatherlink.com 1.10,2013-08-25 06:48:00,
2013-08-25 03:03:00,73.7,73.0,30.13,ESE,121,0.0,0.0,98,0.00,,,0.00,0,weatherlink.com 1.10,2013-08-25 07:03:00,
2013-08-25 03:18:00,73.7,73.0,30.13,ESE,122,0.0,0.0,98,0.00,,,0.00,0,weatherlink.com 1.10,2013-08-25 07:18:00,
2013-08-25 03:33:00,73.5,73.0,30.13,ESE,121,0.0,0.0,98,0.00,,,0.00,0,weatherlink.com 1.10,2013-08-25 07:33:00,
2013-08-25 03:48:00,73.6,73.0,30.13,ESE,121,0.0,0.0,98,0.00,,,0.00,0,weatherlink.com 1.10,2013-08-25 07:48:00,
2013-08-25 04:03:00,73.5,73.0,30.13,ESE,122,0.0,0.0,98,0.00,,,0.00,0,weatherlink.com 1.10,2013-08-25 08:03:00,
2013-08-25 04:18:00,73.3,73.0,30.14,ESE,121,0.0,0.0,98,0.00,,,0.00,0,weatherlink.com 1.10,2013-08-25 08:18:00,
2013-08-25 04:33:00,73.3,73.0,30.13,ESE,122,0.0,0.0,98,0.00,,,0.00,0,weatherlink.com 1.10,2013-08-25 08:33:00,
2013-08-25 04:48:00,73.2,73.0,30.14,ESE,122,0.0,0.0,98,0.00,,,0.00,0,weatherlink.com 1.10,2013-08-25 08:48:00,
2013-08-25 05:03:00,73.1,73.0,30.15,ESE,121,0.0,0.0,98,0.00,,,0.00,0,weatherlink.com 1.10,2013-08-25 09:03:00,
2013-08-25 05:18:00,73.2,73.0,30.15,ESE,121,0.0,4.0,98,0.00,,,0.00,0,weatherlink.com 1.10,2013-08-25 09:18:00,
2013-08-25 05:33:00,73.7,73.0,30.15,ESE,121,0.0,6.0,99,0.00,,,0.00,0,weatherlink.com 1.10,2013-08-25 09:33:00,
2013-08-25 05:48:00,73.9,73.0,30.15,North,5,6.0,9.0,98,0.00,,,0.00,0,weatherlink.com 1.10,2013-08-25 09:48:00,
2013-08-25 06:03:00,74.0,73.0,30.16,NNE,17,9.0,11.0,97,0.12,,,0.12,0,weatherlink.com 1.10,2013-08-25 10:03:00,
2013-08-25 06:18:00,73.3,72.0,30.17,ENE,60,11.0,14.0,97,0.57,,,0.57,0,weatherlink.com 1.10,2013-08-25 10:18:00,
2013-08-25 06:33:00,73.7,73.0,30.17,ENE,69,2.0,8.0,98,1.04,,,1.04,0,weatherlink.com 1.10,2013-08-25 10:33:00,
2013-08-25 06:49:00,73.9,73.0,30.17,NE,44,4.0,6.0,98,1.19,,,1.19,0,weatherlink.com 1.10,2013-08-25 10:49:00,
2013-08-25 07:04:00,73.0,72.0,30.17,North,355,3.0,6.0,97,1.09,,,1.23,0,weatherlink.com 1.10,2013-08-25 11:04:00,
2013-08-25 07:19:00,72.8,72.0,30.17,North,355,0.0,4.0,98,0.64,,,1.23,0,weatherlink.com 1.10,2013-08-25 11:19:00,
2013-08-25 07:34:00,72.8,72.0,30.17,North,355,0.0,3.0,98,0.18,,,1.23,7,weatherlink.com 1.10,2013-08-25 11:34:00,
2013-08-25 07:49:00,72.8,72.0,30.17,North,355,2.0,3.0,98,0.04,,,1.23,25,weatherlink.com 1.10,2013-08-25 11:49:00,
2013-08-25 08:04:00,73.3,73.0,30.18,NE,54,0.0,5.0,99,0.00,,,1.23,49,weatherlink.com 1.10,2013-08-25 12:04:00,
2013-08-25 08:19:00,74.2,74.0,30.17,ENE,62,0.0,5.0,99,0.00,,,1.23,118,weatherlink.com 1.10,2013-08-25 12:19:00,
2013-08-25 08:34:00,75.1,75.0,30.17,ENE,68,3.0,10.0,99,0.00,,,1.23,158,weatherlink.com 1.10,2013-08-25 12:34:00,
2013-08-25 08:49:00,75.9,75.0,30.17,ENE,63,0.0,9.0,97,0.00,,,1.23,192,weatherlink.com 1.10,2013-08-25 12:49:00,
2013-08-25 09:04:00,76.7,76.0,30.17,ENE,57,3.0,10.0,96,0.00,,,1.23,211,weatherlink.com 1.10,2013-08-25 13:04:00,
2013-08-25 09:19:00,77.5,76.0,30.17,NE,50,1.0,10.0,94,0.00,,,1.23,290,weatherlink.com 1.10,2013-08-25 13:19:00,
2013-08-25 09:34:00,78.3,76.0,30.18,ENE,58,0.0,6.0,91,0.00,,,1.23,253,weatherlink.com 1.10,2013-08-25 13:34:00,
2013-08-25 09:49:00,79.1,76.0,30.18,NE,43,7.0,10.0,90,0.00,,,1.23,288,weatherlink.com 1.10,2013-08-25 13:49:00,
2013-08-25 10:04:00,79.6,77.0,30.19,ENE,60,6.0,8.0,90,0.00,,,1.23,223,weatherlink.com 1.10,2013-08-25 14:04:00,
2013-08-25 10:19:00,80.2,76.0,30.19,NE,51,2.0,11.0,88,0.00,,,1.23,427,weatherlink.com 1.10,2013-08-25 14:19:00,
2013-08-25 10:34:00,81.3,77.0,30.20,NE,34,4.0,9.0,87,0.00,,,1.23,536,weatherlink.com 1.10,2013-08-25 14:34:00,
2013-08-25 10:49:00,82.4,77.0,30.20,ENE,67,1.0,13.0,83,0.00,,,1.23,584,weatherlink.com 1.10,2013-08-25 14:49:00,
2013-08-25 11:04:00,82.7,76.0,30.20,NNE,33,10.0,12.0,80,0.00,,,1.23,420,weatherlink.com 1.10,2013-08-25 15:04:00,
2013-08-25 11:19:00,82.6,76.0,30.20,NE,55,7.0,17.0,80,0.00,,,1.23,446,weatherlink.com 1.10,2013-08-25 15:19:00,
2013-08-25 11:34:00,82.2,76.0,30.20,NE,51,4.0,16.0,81,0.00,,,1.23,308,weatherlink.com 1.10,2013-08-25 15:34:00,
2013-08-25 11:49:00,82.1,77.0,30.20,ENE,68,6.0,13.0,83,0.00,,,1.23,179,weatherlink.com 1.10,2013-08-25 15:49:00,
2013-08-25 12:04:00,81.9,76.0,30.20,NE,39,11.0,17.0,82,0.00,,,1.23,279,weatherlink.com 1.10,2013-08-25 16:04:00,
2013-08-25 12:19:00,82.5,77.0,30.20,ENE,69,4.0,17.0,83,0.00,,,1.23,446,weatherlink.com 1.10,2013-08-25 16:19:00,
2013-08-25 12:35:00,82.7,76.0,30.19,ENE,57,6.0,16.0,80,0.00,,,1.23,216,weatherlink.com 1.10,2013-08-25 16:35:00,
2013-08-25 12:50:00,81.9,77.0,30.19,NE,35,2.0,16.0,84,0.00,,,1.23,313,weatherlink.com 1.10,2013-08-25 16:50:00,
2013-08-25 13:05:00,81.1,76.0,30.19,ENE,65,3.0,17.0,83,0.00,,,1.23,209,weatherlink.com 1.10,2013-08-25 17:05:00,
2013-08-25 13:20:00,81.1,76.0,30.18,NE,39,4.0,13.0,85,0.00,,,1.23,12,weatherlink.com 1.10,2013-08-25 17:20:00,
2013-08-25 13:35:00,81.8,76.0,30.18,NE,47,5.0,13.0,81,0.00,,,1.23,350,weatherlink.com 1.10,2013-08-25 17:35:00,
2013-08-25 13:50:00,82.8,76.0,30.17,NE,42,5.0,15.0,79,0.00,,,1.23,408,weatherlink.com 1.10,2013-08-25 17:50:00,
2013-08-25 14:05:00,83.9,77.0,30.18,NE,43,4.0,17.0,79,0.00,,,1.23,708,weatherlink.com 1.10,2013-08-25 18:05:00,
2013-08-25 14:20:00,84.1,75.0,30.18,East,98,6.0,15.0,74,0.00,,,1.23,633,weatherlink.com 1.10,2013-08-25 18:20:00,
2013-08-25 14:35:00,83.2,74.0,30.18,NNW,342,4.0,17.0,74,0.00,,,1.23,492,weatherlink.com 1.10,2013-08-25 18:35:00,
2013-08-25 14:50:00,83.2,73.0,30.17,East,91,11.0,16.0,72,0.00,,,1.23,452,weatherlink.com 1.10,2013-08-25 18:50:00,
2013-08-25 15:05:00,82.1,73.0,30.16,NE,43,0.0,14.0,74,0.00,,,1.23,325,weatherlink.com 1.10,2013-08-25 19:05:00,
2013-08-25 15:20:00,81.9,76.0,30.15,East,79,9.0,14.0,81,0.00,,,1.23,227,weatherlink.com 1.10,2013-08-25 19:20:00,
2013-08-25 15:35:00,81.9,75.0,30.15,ENE,58,4.0,17.0,80,0.00,,,1.23,206,weatherlink.com 1.10,2013-08-25 19:35:00,
2013-08-25 15:50:00,81.8,74.0,30.15,ENE,59,1.0,20.0,78,0.00,,,1.23,265,weatherlink.com 1.10,2013-08-25 19:50:00,
2013-08-25 16:05:00,81.9,74.0,30.15,East,84,7.0,15.0,78,0.00,,,1.23,274,weatherlink.com 1.10,2013-08-25 20:05:00,
2013-08-25 16:20:00,81.8,74.0,30.16,ENE,76,9.0,17.0,78,0.00,,,1.23,264,weatherlink.com 1.10,2013-08-25 20:20:00,
2013-08-25 16:35:00,82.2,74.0,30.15,NNE,33,13.0,19.0,77,0.00,,,1.23,327,weatherlink.com 1.10,2013-08-25 20:35:00,
2013-08-25 16:50:00,83.5,75.0,30.16,East,79,3.0,17.0,75,0.00,,,1.23,359,weatherlink.com 1.10,2013-08-25 20:50:00,
2013-08-25 17:05:00,82.7,74.0,30.16,ENE,61,8.0,21.0,75,0.00,,,1.23,265,weatherlink.com 1.10,2013-08-25 21:05:00,
2013-08-25 17:20:00,81.8,75.0,30.15,NNE,18,4.0,20.0,79,0.00,,,1.23,232,weatherlink.com 1.10,2013-08-25 21:20:00,
2013-08-25 17:35:00,81.2,75.0,30.15,North,350,13.0,19.0,80,0.00,,,1.23,116,weatherlink.com 1.10,2013-08-25 21:35:00,
2013-08-25 17:50:00,80.6,75.0,30.15,ENE,74,5.0,15.0,82,0.00,,,1.23,74,weatherlink.com 1.10,2013-08-25 21:50:00,
2013-08-25 18:05:00,80.0,74.0,30.16,NE,49,3.0,23.0,81,0.00,,,1.23,81,weatherlink.com 1.10,2013-08-25 22:05:00,
2013-08-25 18:20:00,79.7,74.0,30.15,ENE,70,3.0,15.0,82,0.00,,,1.23,63,weatherlink.com 1.10,2013-08-25 22:20:00,
2013-08-25 18:35:00,79.6,73.0,30.16,NE,36,9.0,18.0,81,0.00,,,1.23,53,weatherlink.com 1.10,2013-08-25 22:35:00,
2013-08-25 18:50:00,79.5,73.0,30.16,NE,38,6.0,21.0,81,0.00,,,1.23,62,weatherlink.com 1.10,2013-08-25 22:50:00,
2013-08-25 19:05:00,79.3,73.0,30.16,NNE,31,2.0,15.0,82,0.00,,,1.23,40,weatherlink.com 1.10,2013-08-25 23:05:00,
2013-08-25 19:20:00,79.1,73.0,30.16,NE,34,6.0,16.0,82,0.00,,,1.23,26,weatherlink.com 1.10,2013-08-25 23:20:00,
2013-08-25 19:35:00,78.8,73.0,30.16,North,360,3.0,17.0,82,0.00,,,1.23,16,weatherlink.com 1.10,2013-08-25 23:35:00,
2013-08-25 19:50:00,78.5,72.0,30.17,NE,55,9.0,16.0,81,0.00,,,1.23,5,weatherlink.com 1.10,2013-08-25 23:50:00,
2013-08-25 20:05:00,78.3,72.0,30.17,ENE,76,4.0,15.0,80,0.00,,,1.23,0,weatherlink.com 1.10,2013-08-26 00:05:00,
2013-08-25 20:20:00,78.0,71.0,30.17,East,101,10.0,16.0,80,0.00,,,1.23,0,weatherlink.com 1.10,2013-08-26 00:20:00,
2013-08-25 20:35:00,77.8,72.0,30.17,ENE,75,3.0,11.0,82,0.00,,,1.23,0,weatherlink.com 1.10,2013-08-26 00:35:00,
2013-08-25 20:50:00,77.5,71.0,30.18,East,90,7.0,13.0,81,0.00,,,1.23,0,weatherlink.com 1.10,2013-08-26 00:50:00,
2013-08-25 21:05:00,77.6,72.0,30.19,NE,46,6.0,15.0,82,0.00,,,1.23,0,weatherlink.com 1.10,2013-08-26 01:05:00,
2013-08-25 21:20:00,77.5,72.0,30.19,East,93,6.0,14.0,83,0.00,,,1.23,0,weatherlink.com 1.10,2013-08-26 01:20:00,
2013-08-25 21:35:00,77.5,72.0,30.20,East,79,5.0,12.0,83,0.00,,,1.23,0,weatherlink.com 1.10,2013-08-26 01:35:00,
2013-08-25 21:50:00,77.5,72.0,30.20,NE,53,5.0,14.0,84,0.00,,,1.23,0,weatherlink.com 1.10,2013-08-26 01:50:00,
2013-08-25 22:05:00,77.3,73.0,30.20,NNE,28,6.0,11.0,85,0.00,,,1.23,0,weatherlink.com 1.10,2013-08-26 02:05:00,
2013-08-25 22:20:00,77.1,73.0,30.21,NE,43,3.0,15.0,86,0.00,,,1.23,0,weatherlink.com 1.10,2013-08-26 02:20:00,
2013-08-25 22:35:00,76.9,73.0,30.20,NE,40,5.0,13.0,87,0.00,,,1.23,0,weatherlink.com 1.10,2013-08-26 02:35:00,
2013-08-25 22:50:00,76.5,73.0,30.20,NE,45,3.0,10.0,88,0.00,,,1.23,0,weatherlink.com 1.10,2013-08-26 02:50:00,
2013-08-25 23:05:00,76.1,73.0,30.19,NE,47,1.0,9.0,89,0.00,,,1.23,0,weatherlink.com 1.10,2013-08-26 03:05:00,
2013-08-25 23:20:00,75.8,73.0,30.20,NNE,30,4.0,8.0,90,0.00,,,1.23,0,weatherlink.com 1.10,2013-08-26 03:20:00,
2013-08-25 23:35:00,75.9,73.0,30.19,NNE,28,6.0,8.0,90,0.00,,,1.23,0,weatherlink.com 1.10,2013-08-26 03:35:00,
2013-08-25 23:50:00,76.1,73.0,30.20,ENE,67,0.0,11.0,91,0.00,,,1.23,0,weatherlink.com 1.10,2013-08-26 03:50:00,